AAL809 KSEA-KCLT

Flight info

Callsign AAL809
Flight time N/A
Altitude 39000
Route MONTN2 SEA NORMY MODDA STEVS ZAXUL Q150 LEZLE LKT SLATE BFF ELJAY ATIJA MCI BNA TAZZA FILPZ4
Aircraft A333/H-SDE3GHIJ2J3J5M1RVWXY/LB2D1

Departure

Time 2026-05-07 03:18
Airport Seattle–Tacoma International Airport (KSEA)

Arrival

Time N/A
Airport Charlotte Douglas International Airport (KCLT)
Time Latitude Longitude Altitude Speed Heading
2026-05-07 02:54 47.43990 -122.29886 395 ft 0 kts 51°
2026-05-07 03:03 47.43986 -122.29892 395 ft 2 kts 51°
2026-05-07 03:03 47.43977 -122.29909 389 ft 2 kts 51°
2026-05-07 03:04 47.43967 -122.29928 390 ft 2 kts 42°
2026-05-07 03:04 47.43953 -122.29941 393 ft 2 kts 21°
2026-05-07 03:04 47.43938 -122.29947 393 ft 2 kts
2026-05-07 03:04 47.43922 -122.29950 393 ft 2 kts
2026-05-07 03:05 47.43906 -122.29953 392 ft 2 kts
2026-05-07 03:05 47.43903 -122.29954 392 ft 0 kts
2026-05-07 03:07 47.43928 -122.29953 393 ft 4 kts 351°
2026-05-07 03:08 47.43952 -122.29969 393 ft 5 kts 327°
2026-05-07 03:08 47.43986 -122.30017 394 ft 7 kts 315°
2026-05-07 03:08 47.44023 -122.30072 389 ft 8 kts 315°
2026-05-07 03:08 47.44051 -122.30144 391 ft 8 kts 282°
2026-05-07 03:09 47.44037 -122.30233 392 ft 10 kts 238°
2026-05-07 03:09 47.44000 -122.30338 390 ft 11 kts 251°
2026-05-07 03:09 47.43991 -122.30459 389 ft 12 kts 270°
2026-05-07 03:09 47.43994 -122.30577 388 ft 11 kts 278°
2026-05-07 03:10 47.44045 -122.30634 389 ft 9 kts 351°
2026-05-07 03:10 47.44108 -122.30635 390 ft 9 kts
2026-05-07 03:10 47.44171 -122.30635 391 ft 9 kts 360°
2026-05-07 03:10 47.44251 -122.30635 394 ft 12 kts 360°
2026-05-07 03:11 47.44332 -122.30635 395 ft 12 kts
2026-05-07 03:11 47.44412 -122.30633 398 ft 11 kts
2026-05-07 03:11 47.44487 -122.30633 396 ft 11 kts
2026-05-07 03:11 47.44559 -122.30632 401 ft 10 kts
2026-05-07 03:12 47.44628 -122.30631 403 ft 12 kts
2026-05-07 03:12 47.44731 -122.30630 407 ft 16 kts
2026-05-07 03:12 47.44841 -122.30629 403 ft 15 kts
2026-05-07 03:12 47.44942 -122.30630 405 ft 14 kts 360°
2026-05-07 03:13 47.45031 -122.30628 411 ft 12 kts
2026-05-07 03:13 47.45109 -122.30627 410 ft 12 kts
2026-05-07 03:13 47.45207 -122.30626 412 ft 15 kts
2026-05-07 03:13 47.45301 -122.30625 418 ft 12 kts
2026-05-07 03:14 47.45400 -122.30624 421 ft 16 kts 360°
2026-05-07 03:14 47.45503 -122.30623 428 ft 14 kts
2026-05-07 03:14 47.45730 -122.30621 430 ft 18 kts 360°
2026-05-07 03:15 47.45855 -122.30621 429 ft 18 kts
2026-05-07 03:15 47.45981 -122.30619 437 ft 18 kts
2026-05-07 03:15 47.46110 -122.30618 437 ft 19 kts
2026-05-07 03:15 47.46246 -122.30617 431 ft 19 kts
2026-05-07 03:16 47.46337 -122.30620 438 ft 10 kts 351°
2026-05-07 03:16 47.46377 -122.30684 446 ft 9 kts 281°
2026-05-07 03:16 47.46354 -122.30760 432 ft 8 kts 218°
2026-05-07 03:16 47.46295 -122.30777 432 ft 10 kts 182°
2026-05-07 03:17 47.46136 -122.30779 428 ft 49 kts 180°
2026-05-07 03:17 47.45593 -122.30785 426 ft 105 kts 180°
2026-05-07 03:17 47.44690 -122.30792 405 ft 152 kts 180°
2026-05-07 03:17 47.43599 -122.30795 839 ft 158 kts 182°
2026-05-07 03:18 47.42483 -122.30838 1412 ft 162 kts 184°
2026-05-07 03:18 47.41333 -122.30886 1889 ft 174 kts 184°
2026-05-07 03:18 47.40042 -122.30939 2113 ft 199 kts 183°
2026-05-07 03:18 47.38565 -122.30995 2444 ft 221 kts 183°
2026-05-07 03:19 47.37031 -122.31022 3190 ft 225 kts 181°
2026-05-07 03:19 47.35427 -122.31006 3906 ft 233 kts 179°
2026-05-07 03:19 47.33783 -122.30544 4422 ft 250 kts 159°
2026-05-07 03:19 47.32343 -122.29034 5108 ft 262 kts 131°
2026-05-07 03:20 47.31525 -122.26602 5817 ft 272 kts 101°
2026-05-07 03:20 47.31626 -122.23811 6491 ft 281 kts 70°
2026-05-07 03:20 47.32640 -122.21303 7158 ft 287 kts 48°
2026-05-07 03:20 47.33936 -122.19117 8049 ft 286 kts 45°
2026-05-07 03:21 47.35282 -122.16931 8911 ft 290 kts 44°
2026-05-07 03:21 47.36643 -122.14685 9655 ft 298 kts 46°
2026-05-07 03:21 47.37738 -122.12042 10359 ft 311 kts 63°
2026-05-07 03:21 47.38477 -122.08912 10734 ft 333 kts 72°
2026-05-07 03:22 47.38994 -122.05468 11033 ft 354 kts 77°
2026-05-07 03:22 47.39402 -122.01812 11536 ft 367 kts 79°
2026-05-07 03:22 47.39785 -121.98051 12174 ft 373 kts 79°
2026-05-07 03:22 47.40190 -121.94230 12827 ft 380 kts 77°
2026-05-07 03:23 47.40633 -121.90346 13445 ft 387 kts 77°
2026-05-07 03:23 47.41112 -121.86410 14112 ft 392 kts 76°
2026-05-07 03:23 47.41617 -121.82427 14704 ft 396 kts 75°
2026-05-07 03:23 47.42136 -121.78421 15300 ft 399 kts 75°
2026-05-07 03:24 47.42646 -121.74374 15933 ft 403 kts 78°
2026-05-07 03:24 47.42850 -121.70205 16560 ft 409 kts 85°
2026-05-07 03:24 47.42907 -121.65988 17168 ft 414 kts 87°
2026-05-07 03:24 47.42881 -121.61721 17765 ft 417 kts 88°
2026-05-07 03:25 47.42811 -121.57480 18347 ft 421 kts 89°
2026-05-07 03:25 47.42633 -121.53135 18871 ft 426 kts 95°
2026-05-07 03:25 47.42105 -121.48815 19357 ft 430 kts 100°
2026-05-07 03:25 47.41437 -121.44504 19976 ft 430 kts 102°
2026-05-07 03:26 47.40699 -121.40225 20546 ft 432 kts 103°
2026-05-07 03:26 47.39921 -121.35921 20998 ft 435 kts 103°
2026-05-07 03:26 47.39125 -121.31594 21483 ft 439 kts 103°
2026-05-07 03:26 47.38321 -121.27224 21965 ft 441 kts 103°
2026-05-07 03:27 47.37518 -121.22835 22395 ft 443 kts 103°
2026-05-07 03:27 47.36718 -121.18437 22914 ft 445 kts 103°
2026-05-07 03:27 47.35916 -121.14006 23365 ft 449 kts 103°
2026-05-07 03:27 47.35110 -121.09543 23778 ft 453 kts 103°
2026-05-07 03:28 47.34298 -121.05044 24160 ft 455 kts 103°
2026-05-07 03:28 47.33477 -121.00509 24522 ft 459 kts 103°
2026-05-07 03:28 47.32662 -120.96017 24862 ft 461 kts 103°
2026-05-07 03:28 47.31826 -120.91429 25212 ft 464 kts 103°
2026-05-07 03:29 47.30985 -120.86828 25597 ft 467 kts 103°
2026-05-07 03:29 47.30134 -120.82185 25892 ft 470 kts 103°
2026-05-07 03:29 47.29275 -120.77512 26230 ft 473 kts 103°
2026-05-07 03:29 47.28410 -120.72814 26500 ft 477 kts 103°
2026-05-07 03:30 47.27537 -120.68085 26743 ft 482 kts 103°
2026-05-07 03:30 47.26652 -120.63307 27078 ft 484 kts 103°
2026-05-07 03:30 47.25765 -120.58526 27429 ft 486 kts 103°
2026-05-07 03:30 47.24882 -120.53758 27736 ft 489 kts 103°
2026-05-07 03:31 47.24034 -120.48901 28034 ft 491 kts 102°
2026-05-07 03:31 47.23224 -120.44002 28330 ft 494 kts 101°
2026-05-07 03:31 47.22427 -120.39067 28620 ft 497 kts 101°
2026-05-07 03:31 47.21631 -120.34119 28906 ft 499 kts 101°
2026-05-07 03:32 47.20822 -120.29123 29197 ft 502 kts 101°
2026-05-07 03:32 47.20004 -120.24115 29516 ft 505 kts 101°
2026-05-07 03:32 47.19171 -120.19057 29711 ft 508 kts 101°
2026-05-07 03:32 47.18333 -120.14008 30058 ft 509 kts 101°
2026-05-07 03:33 47.17497 -120.08999 30291 ft 512 kts 101°
2026-05-07 03:33 47.16392 -120.03998 30542 ft 517 kts 111°
2026-05-07 03:33 47.14939 -119.99160 30760 ft 519 kts 113°
2026-05-07 03:33 47.13395 -119.94357 31018 ft 521 kts 114°
2026-05-07 03:34 47.11792 -119.89566 31274 ft 523 kts 115°
2026-05-07 03:34 47.10162 -119.84784 31509 ft 525 kts 115°
2026-05-07 03:34 47.08521 -119.79998 31741 ft 527 kts 115°
2026-05-07 03:34 47.06869 -119.75183 31977 ft 529 kts 115°
2026-05-07 03:35 47.05225 -119.70379 32253 ft 529 kts 115°
2026-05-07 03:35 47.03570 -119.65535 32601 ft 528 kts 114°
2026-05-07 03:35 47.01928 -119.60729 32937 ft 527 kts 114°
2026-05-07 03:35 47.00285 -119.55920 33236 ft 527 kts 114°
2026-05-07 03:36 46.98665 -119.51182 33537 ft 526 kts 114°
2026-05-07 03:36 46.97003 -119.46331 33842 ft 525 kts 114°
2026-05-07 03:36 46.95363 -119.41551 34113 ft 525 kts 114°
2026-05-07 03:36 46.93728 -119.36799 34546 ft 519 kts 114°
2026-05-07 03:37 46.92137 -119.32185 34819 ft 518 kts 114°
2026-05-07 03:37 46.90502 -119.27447 35033 ft 519 kts 114°
2026-05-07 03:37 46.88871 -119.22730 35213 ft 520 kts 114°
2026-05-07 03:37 46.87240 -119.18019 35435 ft 520 kts 114°
2026-05-07 03:38 46.85597 -119.13285 35663 ft 520 kts 114°
2026-05-07 03:38 46.83962 -119.08583 35859 ft 520 kts 114°
2026-05-07 03:38 46.82318 -119.03864 36087 ft 519 kts 114°
2026-05-07 03:38 46.80683 -118.99180 36380 ft 517 kts 114°
2026-05-07 03:39 46.79048 -118.94503 36603 ft 517 kts 114°
2026-05-07 03:39 46.77415 -118.89840 36794 ft 517 kts 114°
2026-05-07 03:39 46.75771 -118.85153 36976 ft 517 kts 114°
2026-05-07 03:39 46.74135 -118.80496 37169 ft 517 kts 114°
2026-05-07 03:40 46.72491 -118.75825 37344 ft 518 kts 114°
2026-05-07 03:40 46.70843 -118.71150 37466 ft 520 kts 114°
2026-05-07 03:40 46.69185 -118.66457 37674 ft 520 kts 114°
2026-05-07 03:40 46.67527 -118.61775 37886 ft 519 kts 114°
2026-05-07 03:41 46.65868 -118.57096 38068 ft 519 kts 114°
2026-05-07 03:41 46.64231 -118.52486 38246 ft 519 kts 114°
2026-05-07 03:41 46.62572 -118.47825 38415 ft 519 kts 114°
2026-05-07 03:41 46.60913 -118.43168 38578 ft 519 kts 114°
2026-05-07 03:42 46.59242 -118.38490 38754 ft 518 kts 114°
2026-05-07 03:42 46.57581 -118.33846 38889 ft 518 kts 114°
2026-05-07 03:42 46.55916 -118.29201 39078 ft 517 kts 114°
2026-05-07 03:42 46.54258 -118.24584 39269 ft 515 kts 114°
2026-05-07 03:43 46.52620 -118.20029 39442 ft 514 kts 114°
2026-05-07 03:43 46.50967 -118.15439 39593 ft 513 kts 114°
2026-05-07 03:43 46.49309 -118.10843 39754 ft 512 kts 114°
2026-05-07 03:43 46.47655 -118.06266 39914 ft 512 kts 114°
2026-05-07 03:44 46.45998 -118.01686 40063 ft 512 kts 114°
2026-05-07 03:44 46.43244 -117.94092 40231 ft 512 kts 115°
2026-05-07 03:44 46.41583 -117.89528 40458 ft 510 kts 115°
2026-05-07 03:45 46.39931 -117.84995 40630 ft 508 kts 115°
2026-05-07 03:45 46.37725 -117.78951 40839 ft 507 kts 115°
2026-05-07 03:45 46.36629 -117.75955 40910 ft 507 kts 115°
2026-05-07 03:46 46.32783 -117.65458 40975 ft 510 kts 115°
2026-05-07 03:46 46.29990 -117.57862 40964 ft 509 kts 115°
2026-05-07 03:47 46.26654 -117.48818 40960 ft 510 kts 115°
2026-05-07 03:47 46.23311 -117.39787 40960 ft 510 kts 115°
2026-05-07 03:48 46.19981 -117.30821 40983 ft 510 kts 115°
2026-05-07 03:48 46.16615 -117.21786 40959 ft 511 kts 115°
2026-05-07 03:49 46.13280 -117.12752 40950 ft 509 kts 114°
2026-05-07 03:49 46.10106 -117.03620 40958 ft 508 kts 113°
2026-05-07 03:50 46.06976 -116.94489 40969 ft 508 kts 113°
2026-05-07 03:50 46.03845 -116.85430 40973 ft 508 kts 113°
2026-05-07 03:51 46.00674 -116.76338 40976 ft 508 kts 113°
2026-05-07 03:51 45.97493 -116.67268 40967 ft 507 kts 114°
2026-05-07 03:52 45.94307 -116.58211 40984 ft 508 kts 114°
2026-05-07 03:52 45.91107 -116.49141 40968 ft 510 kts 114°
2026-05-07 03:53 45.87890 -116.40055 40967 ft 509 kts 114°
2026-05-07 03:53 45.84695 -116.31063 40968 ft 509 kts 114°
2026-05-07 03:54 45.81469 -116.22010 41015 ft 509 kts 114°
2026-05-07 03:54 45.78240 -116.12983 41012 ft 510 kts 114°
2026-05-07 03:55 45.74996 -116.03940 41008 ft 510 kts 114°
2026-05-07 03:55 45.71753 -115.94935 40999 ft 509 kts 114°
2026-05-07 03:56 45.68496 -115.85917 40986 ft 510 kts 114°
2026-05-07 03:56 45.65226 -115.76897 40983 ft 510 kts 114°
2026-05-07 03:57 45.61979 -115.67968 40992 ft 510 kts 114°
2026-05-07 03:57 45.58704 -115.58994 40983 ft 509 kts 115°
2026-05-07 03:58 45.55424 -115.50036 40976 ft 509 kts 115°
2026-05-07 03:58 45.52135 -115.41081 40975 ft 509 kts 115°
2026-05-07 03:59 45.48849 -115.32167 40970 ft 507 kts 115°
2026-05-07 03:59 45.45562 -115.23275 40973 ft 507 kts 115°
2026-05-07 04:00 45.42258 -115.14365 40974 ft 509 kts 115°
2026-05-07 04:00 45.38933 -115.05429 40970 ft 510 kts 115°
2026-05-07 04:01 45.35628 -114.96579 40972 ft 509 kts 115°
2026-05-07 04:01 45.32303 -114.87704 40965 ft 509 kts 115°
2026-05-07 04:02 45.28965 -114.78818 40967 ft 509 kts 115°
2026-05-07 04:02 45.25621 -114.69946 40976 ft 509 kts 115°
2026-05-07 04:03 45.22284 -114.61125 40982 ft 506 kts 115°
2026-05-07 04:03 45.18968 -114.52389 40961 ft 507 kts 115°
2026-05-07 04:04 45.15615 -114.43584 40964 ft 508 kts 115°
2026-05-07 04:04 45.12248 -114.34768 40962 ft 508 kts 115°
2026-05-07 04:05 45.08886 -114.25989 40960 ft 506 kts 115°
2026-05-07 04:05 45.05527 -114.17247 40960 ft 506 kts 115°
2026-05-07 04:06 45.02272 -114.08431 40958 ft 503 kts 108°
2026-05-07 04:06 44.99722 -113.99254 40985 ft 502 kts 106°
2026-05-07 04:07 44.97314 -113.90003 40959 ft 501 kts 105°
2026-05-07 04:07 44.94923 -113.80734 40961 ft 502 kts 106°
2026-05-07 04:08 44.92517 -113.71491 40968 ft 501 kts 106°
2026-05-07 04:08 44.90111 -113.62331 40970 ft 502 kts 106°
2026-05-07 04:09 44.87674 -113.53096 40973 ft 501 kts 106°
2026-05-07 04:09 44.85234 -113.43886 41005 ft 500 kts 106°
2026-05-07 04:10 44.82802 -113.34741 40988 ft 502 kts 107°
2026-05-07 04:10 44.80343 -113.25526 40982 ft 503 kts 107°
2026-05-07 04:11 44.77872 -113.16304 40996 ft 503 kts 107°
2026-05-07 04:11 44.75394 -113.07094 40991 ft 501 kts 107°
2026-05-07 04:12 44.72921 -112.97942 41000 ft 500 kts 107°
2026-05-07 04:12 44.70445 -112.88804 41011 ft 500 kts 107°
2026-05-07 04:13 44.67975 -112.79724 41012 ft 500 kts 107°
2026-05-07 04:13 44.65481 -112.70593 41009 ft 500 kts 107°
2026-05-07 04:14 44.62980 -112.61473 41019 ft 500 kts 107°
2026-05-07 04:14 44.60476 -112.52369 41017 ft 500 kts 107°
2026-05-07 04:15 44.57964 -112.43276 41014 ft 500 kts 107°
2026-05-07 04:15 44.55442 -112.34177 41019 ft 500 kts 108°
2026-05-07 04:16 44.52907 -112.25065 41018 ft 502 kts 108°
2026-05-07 04:16 44.50378 -112.16013 41009 ft 502 kts 108°
2026-05-07 04:17 44.47823 -112.06903 41011 ft 502 kts 108°
2026-05-07 04:17 44.45262 -111.97799 41009 ft 502 kts 108°
2026-05-07 04:18 44.42697 -111.88721 41017 ft 502 kts 108°
2026-05-07 04:18 44.40123 -111.79641 41017 ft 502 kts 108°
2026-05-07 04:19 44.37541 -111.70562 41032 ft 502 kts 108°
2026-05-07 04:19 44.34968 -111.61553 41032 ft 502 kts 108°
2026-05-07 04:20 44.32368 -111.52479 41048 ft 502 kts 108°
2026-05-07 04:20 44.29764 -111.43426 41043 ft 502 kts 108°
2026-05-07 04:21 44.25873 -111.29964 41068 ft 500 kts 109°
2026-05-07 04:21 44.23261 -111.20963 41073 ft 501 kts 109°
2026-05-07 04:22 44.20637 -111.11955 41091 ft 501 kts 109°
2026-05-07 04:22 44.18015 -111.02984 41092 ft 501 kts 109°
2026-05-07 04:23 44.15394 -110.94052 41092 ft 500 kts 109°
2026-05-07 04:23 44.12760 -110.85104 41110 ft 500 kts 109°
2026-05-07 04:24 44.10115 -110.76152 41107 ft 499 kts 109°
2026-05-07 04:24 44.07460 -110.67199 41120 ft 499 kts 109°
2026-05-07 04:25 44.04803 -110.58272 41119 ft 499 kts 109°
2026-05-07 04:25 44.02216 -110.49344 41121 ft 497 kts 107°
2026-05-07 04:26 43.99833 -110.40324 41121 ft 497 kts 106°
2026-05-07 04:26 43.97486 -110.31294 41147 ft 497 kts 107°
2026-05-07 04:27 43.95131 -110.22348 41121 ft 496 kts 107°
2026-05-07 04:27 43.92741 -110.13376 41126 ft 494 kts 107°
2026-05-07 04:28 43.90344 -110.04428 41133 ft 494 kts 107°
2026-05-07 04:28 43.87945 -109.95507 41132 ft 494 kts 107°
2026-05-07 04:29 43.85540 -109.86597 41118 ft 494 kts 107°
2026-05-07 04:29 43.83138 -109.77723 41120 ft 494 kts 107°
2026-05-07 04:30 43.80718 -109.68821 41099 ft 494 kts 107°
2026-05-07 04:30 43.78292 -109.59928 41098 ft 493 kts 107°
2026-05-07 04:31 43.75863 -109.51059 41077 ft 494 kts 107°
2026-05-07 04:31 43.73419 -109.42166 41075 ft 494 kts 107°
2026-05-07 04:32 43.71386 -109.34791 41079 ft 494 kts 108°
2026-05-07 04:32 43.68531 -109.24471 41047 ft 494 kts 108°
2026-05-07 04:33 43.66473 -109.17059 41031 ft 494 kts 108°
2026-05-07 04:33 43.64016 -109.08240 41023 ft 494 kts 108°
2026-05-07 04:34 43.61546 -108.99406 41033 ft 494 kts 108°
2026-05-07 04:34 43.59064 -108.90562 40998 ft 494 kts 108°
2026-05-07 04:35 43.56578 -108.81734 41003 ft 494 kts 108°
2026-05-07 04:35 43.54076 -108.72879 40991 ft 495 kts 108°
2026-05-07 04:36 43.51584 -108.64092 40994 ft 495 kts 109°
2026-05-07 04:36 43.49070 -108.55260 40990 ft 495 kts 109°
2026-05-07 04:37 43.46544 -108.46419 40992 ft 495 kts 109°
2026-05-07 04:37 43.44013 -108.37589 40983 ft 495 kts 109°
2026-05-07 04:38 43.41477 -108.28770 40983 ft 496 kts 109°
2026-05-07 04:38 43.38926 -108.19935 40982 ft 496 kts 109°
2026-05-07 04:39 43.36386 -108.11168 40985 ft 496 kts 109°
2026-05-07 04:39 43.33825 -108.02356 40983 ft 497 kts 109°
2026-05-07 04:40 43.31256 -107.93551 40992 ft 497 kts 109°
2026-05-07 04:40 43.28682 -107.84757 40986 ft 497 kts 109°
2026-05-07 04:41 43.26099 -107.75963 40991 ft 497 kts 109°
2026-05-07 04:41 43.23504 -107.67158 40993 ft 497 kts 109°
2026-05-07 04:42 43.20903 -107.58362 40993 ft 498 kts 109°
2026-05-07 04:42 43.18307 -107.49616 40993 ft 498 kts 109°
2026-05-07 04:43 43.15689 -107.40825 40999 ft 498 kts 109°
2026-05-07 04:43 43.13067 -107.32050 41002 ft 499 kts 109°
2026-05-07 04:44 43.10427 -107.23245 40993 ft 500 kts 109°
2026-05-07 04:44 43.07776 -107.14432 41007 ft 500 kts 110°
2026-05-07 04:45 43.05119 -107.05631 41006 ft 500 kts 110°
2026-05-07 04:45 43.02469 -106.96885 41008 ft 501 kts 110°
2026-05-07 04:46 42.99795 -106.88085 41005 ft 501 kts 110°
2026-05-07 04:46 42.97112 -106.79290 40997 ft 501 kts 110°
2026-05-07 04:47 42.94433 -106.70534 41019 ft 500 kts 110°
2026-05-07 04:47 42.91744 -106.61779 41026 ft 500 kts 110°
2026-05-07 04:48 42.89048 -106.53026 41014 ft 500 kts 110°
2026-05-07 04:48 42.86363 -106.44337 41018 ft 500 kts 110°
2026-05-07 04:49 42.83651 -106.35593 41004 ft 500 kts 110°
2026-05-07 04:49 42.80934 -106.26863 41020 ft 500 kts 110°
2026-05-07 04:50 42.78217 -106.18159 41012 ft 500 kts 110°
2026-05-07 04:50 42.75491 -106.09457 41023 ft 500 kts 110°
2026-05-07 04:51 42.72757 -106.00756 41012 ft 500 kts 110°
2026-05-07 04:51 42.70020 -105.92075 41005 ft 499 kts 111°
2026-05-07 04:52 42.67277 -105.83403 41008 ft 498 kts 111°
2026-05-07 04:52 42.64531 -105.74750 41007 ft 498 kts 111°
2026-05-07 04:53 42.61798 -105.66166 41008 ft 498 kts 111°
2026-05-07 04:53 42.59033 -105.57511 41004 ft 499 kts 111°
2026-05-07 04:54 42.56264 -105.48868 40993 ft 499 kts 111°
2026-05-07 04:54 42.53486 -105.40228 41004 ft 499 kts 111°
2026-05-07 04:55 42.50722 -105.31659 41011 ft 499 kts 111°
2026-05-07 04:55 42.47933 -105.23039 41016 ft 499 kts 111°
2026-05-07 04:56 42.45134 -105.14416 41018 ft 500 kts 111°
2026-05-07 04:56 42.42327 -105.05796 41023 ft 500 kts 111°
2026-05-07 04:57 42.39514 -104.97185 41033 ft 500 kts 111°
2026-05-07 04:57 42.36693 -104.88578 41056 ft 500 kts 111°
2026-05-07 04:58 42.33863 -104.79968 41046 ft 502 kts 111°
2026-05-07 04:58 42.31016 -104.71337 41056 ft 502 kts 111°
2026-05-07 04:59 42.28164 -104.62717 41036 ft 502 kts 111°
2026-05-07 04:59 42.25313 -104.54126 41053 ft 501 kts 111°
2026-05-07 05:00 42.22478 -104.45611 41040 ft 501 kts 111°
2026-05-07 05:00 42.19617 -104.37046 41040 ft 501 kts 111°
2026-05-07 05:01 42.16744 -104.28471 41011 ft 501 kts 112°
2026-05-07 05:01 42.13871 -104.19922 41024 ft 501 kts 112°
2026-05-07 05:02 42.10988 -104.11371 40999 ft 501 kts 112°
2026-05-07 05:02 42.08099 -104.02828 41007 ft 500 kts 112°
2026-05-07 05:03 42.05227 -103.94362 41009 ft 500 kts 112°
2026-05-07 05:03 42.02329 -103.85843 41013 ft 501 kts 112°
2026-05-07 05:04 41.99421 -103.77324 41019 ft 502 kts 112°
2026-05-07 05:04 41.96501 -103.68796 41016 ft 502 kts 112°
2026-05-07 05:05 41.93571 -103.60263 41015 ft 502 kts 112°
2026-05-07 05:05 41.90656 -103.51802 41018 ft 502 kts 112°
2026-05-07 05:06 41.87873 -103.43199 41017 ft 502 kts 109°
2026-05-07 05:06 41.85405 -103.34438 41017 ft 502 kts 107°
2026-05-07 05:07 41.82969 -103.25652 41012 ft 502 kts 108°
2026-05-07 05:07 41.80493 -103.16892 41026 ft 502 kts 108°
2026-05-07 05:08 41.77991 -103.08163 41016 ft 502 kts 109°
2026-05-07 05:08 41.75469 -102.99421 41011 ft 503 kts 109°
2026-05-07 05:09 41.72960 -102.90751 41012 ft 503 kts 109°
2026-05-07 05:09 41.70425 -102.82014 41015 ft 503 kts 109°
2026-05-07 05:10 41.67885 -102.73292 41026 ft 503 kts 109°
2026-05-07 05:10 41.65339 -102.64573 41021 ft 503 kts 109°
2026-05-07 05:11 41.62785 -102.55861 41028 ft 503 kts 109°
2026-05-07 05:11 41.60220 -102.47140 41031 ft 503 kts 109°
2026-05-07 05:12 41.57652 -102.38435 41050 ft 503 kts 110°
2026-05-07 05:12 41.55079 -102.29743 41038 ft 504 kts 110°
2026-05-07 05:13 41.52512 -102.21102 41044 ft 504 kts 110°
2026-05-07 05:13 41.49921 -102.12407 41045 ft 504 kts 110°
2026-05-07 05:14 41.47322 -102.03718 41078 ft 504 kts 110°
2026-05-07 05:14 41.44716 -101.95030 41055 ft 505 kts 110°
2026-05-07 05:15 41.42098 -101.86333 41045 ft 505 kts 110°
2026-05-07 05:15 41.39475 -101.77648 41061 ft 505 kts 111°
2026-05-07 05:16 41.36843 -101.68963 41053 ft 506 kts 111°
2026-05-07 05:16 41.34217 -101.60323 41068 ft 506 kts 111°
2026-05-07 05:17 41.31999 -101.53049 41058 ft 506 kts 111°
2026-05-07 05:17 41.28915 -101.42969 41069 ft 506 kts 111°
2026-05-07 05:18 41.26701 -101.35754 41069 ft 506 kts 111°
2026-05-07 05:18 41.24034 -101.27091 41064 ft 506 kts 112°
2026-05-07 05:19 41.21276 -101.18472 41076 ft 507 kts 115°
2026-05-07 05:19 41.18251 -101.10018 41067 ft 507 kts 116°
2026-05-07 05:20 41.15160 -101.01585 41064 ft 507 kts 116°
2026-05-07 05:20 41.12094 -100.93167 41066 ft 507 kts 116°
2026-05-07 05:21 41.07529 -100.80568 41057 ft 507 kts 116°
2026-05-07 05:22 41.04471 -100.72145 41048 ft 507 kts 116°
2026-05-07 05:22 41.01400 -100.63715 41053 ft 507 kts 116°
2026-05-07 05:23 40.98325 -100.55298 41080 ft 508 kts 116°
2026-05-07 05:23 40.95242 -100.46888 41076 ft 509 kts 116°
2026-05-07 05:24 40.92162 -100.38510 41081 ft 509 kts 117°
2026-05-07 05:24 40.89062 -100.30101 41091 ft 509 kts 117°
2026-05-07 05:25 40.85952 -100.21689 41087 ft 510 kts 117°
2026-05-07 05:25 40.82828 -100.13265 41096 ft 511 kts 117°
2026-05-07 05:26 40.79694 -100.04840 41093 ft 512 kts 117°
2026-05-07 05:26 40.76551 -99.96412 41091 ft 512 kts 117°
2026-05-07 05:27 40.73399 -99.87988 41109 ft 512 kts 117°
2026-05-07 05:27 40.70241 -99.79570 41096 ft 512 kts 118°
2026-05-07 05:28 40.67074 -99.71154 41113 ft 513 kts 118°
2026-05-07 05:28 40.63895 -99.62731 41111 ft 513 kts 118°
2026-05-07 05:29 40.60709 -99.54311 41103 ft 513 kts 118°
2026-05-07 05:29 40.57519 -99.45907 41138 ft 513 kts 118°
2026-05-07 05:30 40.54339 -99.37551 41104 ft 515 kts 118°
2026-05-07 05:30 40.51126 -99.29134 41069 ft 516 kts 118°
2026-05-07 05:31 40.47897 -99.20701 41083 ft 516 kts 118°
2026-05-07 05:31 40.44662 -99.12274 41090 ft 516 kts 118°
2026-05-07 05:32 40.41425 -99.03864 41103 ft 517 kts 119°
2026-05-07 05:32 40.38171 -98.95437 41112 ft 518 kts 119°
2026-05-07 05:33 40.34910 -98.87012 41116 ft 518 kts 119°
2026-05-07 05:33 40.31642 -98.78594 41124 ft 518 kts 119°
2026-05-07 05:34 40.28364 -98.70176 41138 ft 518 kts 119°
2026-05-07 05:34 40.25097 -98.61809 41117 ft 519 kts 119°
2026-05-07 05:35 40.21799 -98.53385 41125 ft 519 kts 119°
2026-05-07 05:35 40.18499 -98.44979 41119 ft 519 kts 120°
2026-05-07 05:36 40.15192 -98.36580 41124 ft 519 kts 120°
2026-05-07 05:36 40.11884 -98.28200 41128 ft 518 kts 120°
2026-05-07 05:37 40.08568 -98.19827 41125 ft 518 kts 120°
2026-05-07 05:37 40.05246 -98.11459 41121 ft 518 kts 120°
2026-05-07 05:38 40.01922 -98.03113 41126 ft 518 kts 120°
2026-05-07 05:38 39.98615 -97.94830 41124 ft 518 kts 121°
2026-05-07 05:39 39.95283 -97.86505 41117 ft 518 kts 121°
2026-05-07 05:39 39.91932 -97.78159 41128 ft 518 kts 121°
2026-05-07 05:40 39.88583 -97.69838 41126 ft 518 kts 121°
2026-05-07 05:40 39.86097 -97.60984 41122 ft 523 kts 108°
2026-05-07 05:41 39.84286 -97.51844 41126 ft 526 kts 106°
2026-05-07 05:41 39.82582 -97.42579 41123 ft 527 kts 105°
2026-05-07 05:42 39.80868 -97.33303 41119 ft 527 kts 106°
2026-05-07 05:42 39.79125 -97.24042 41120 ft 527 kts 107°
2026-05-07 05:43 39.77361 -97.14775 41128 ft 528 kts 107°
2026-05-07 05:43 39.75584 -97.05493 41126 ft 528 kts 107°
2026-05-07 05:44 39.73815 -96.96290 41126 ft 528 kts 107°
2026-05-07 05:44 39.72027 -96.87029 41123 ft 528 kts 107°
2026-05-07 05:45 39.70231 -96.77769 41123 ft 529 kts 107°
2026-05-07 05:45 39.68422 -96.68489 41121 ft 530 kts 107°
2026-05-07 05:46 39.66611 -96.59239 41125 ft 531 kts 107°
2026-05-07 05:46 39.64787 -96.49964 41127 ft 530 kts 107°
2026-05-07 05:47 39.62950 -96.40666 41132 ft 531 kts 108°
2026-05-07 05:47 39.61113 -96.31414 41124 ft 533 kts 108°
2026-05-07 05:48 39.59257 -96.22109 41125 ft 533 kts 108°
2026-05-07 05:48 39.57392 -96.12801 41124 ft 533 kts 108°
2026-05-07 05:49 39.55522 -96.03508 41123 ft 534 kts 108°
2026-05-07 05:49 39.53637 -95.94187 41121 ft 535 kts 109°
2026-05-07 05:50 39.51745 -95.84867 41125 ft 535 kts 109°
2026-05-07 05:50 39.49847 -95.75561 41120 ft 535 kts 109°
2026-05-07 05:51 39.47937 -95.66241 41126 ft 535 kts 109°
2026-05-07 05:51 39.46030 -95.56973 41122 ft 536 kts 109°
2026-05-07 05:52 39.44102 -95.47643 41117 ft 536 kts 109°
2026-05-07 05:52 39.42164 -95.38307 41122 ft 538 kts 109°
2026-05-07 05:53 39.40212 -95.28946 41125 ft 539 kts 110°
2026-05-07 05:53 39.38251 -95.19579 41125 ft 540 kts 110°
2026-05-07 05:54 39.36278 -95.10200 41125 ft 541 kts 110°
2026-05-07 05:54 39.34299 -95.00829 41114 ft 541 kts 110°
2026-05-07 05:55 39.32319 -94.91492 41120 ft 541 kts 110°
2026-05-07 05:55 39.30317 -94.82103 41105 ft 543 kts 110°
2026-05-07 05:56 39.28105 -94.72827 41124 ft 537 kts 118°
2026-05-07 05:56 39.25224 -94.63950 41104 ft 535 kts 120°
2026-05-07 05:57 39.22205 -94.55154 41118 ft 536 kts 121°
2026-05-07 05:57 39.19150 -94.46350 41119 ft 538 kts 121°
2026-05-07 05:58 39.16118 -94.37600 41123 ft 538 kts 121°
2026-05-07 05:58 39.13070 -94.28797 41132 ft 538 kts 121°
2026-05-07 05:59 39.10017 -94.19999 41132 ft 538 kts 121°
2026-05-07 05:59 39.06951 -94.11192 41135 ft 539 kts 121°
2026-05-07 06:00 39.03874 -94.02382 41128 ft 540 kts 122°
2026-05-07 06:00 39.00820 -93.93665 41143 ft 541 kts 122°